Weather History for Blakely, GA

Change the Weather History Date:

Saturday, May 4, 2013

  Actual Average (KDHN) Record (KDHN)
Temperature  
Mean Temperature 55 °F 71 °F  
Max Temperature 62 °F 83 °F 95 °F (2002)
Min Temperature 48 °F 59 °F 46 °F (2004)
Degree Days  
Heating Degree Days 10    
Cooling Degree Days 0 7  
Month to date cooling degree days 25  
Year to date cooling degree days 146  
Growing Degree Days 5 (Base 50)    
Moisture  
Dew Point 56 °F    
Average Humidity 97    
Maximum Humidity 100    
Minimum Humidity 88    
Precipitation  
Precipitation 0.00 in 0.09 in 1.79 in (1967)
Month to date precipitation 0.37  
Year to date precipitation 19.17  
Sea Level Pressure  
Sea Level Pressure 29.85 in    
Wind  
Wind Speed 5 mph (NNE)    
Max Wind Speed 10 mph    
Max Gust Speed 16 mph    
Visibility 7 miles    
Events Rain    
T = Trace of Precipitation, MM = Missing Value Source: NWS Daily Summary

Daily Weather History Graph

Daily Weather History Graph

Search for Another Location

Airport:

Trip Planner

Search our weather history database for the weather conditions in past years. The results will help you decide how hot, cold, wet, or windy it might be!

Date:

Astronomy

May. 04, 2013 Rise Set
Actual Time 6:51 AM EDT 8:21 PM EDT
Civil Twilight 6:25 AM EDT 8:47 PM EDT
Nautical Twilight 5:54 AM EDT 9:18 PM EDT
Astronomical Twilight 5:22 AM EDT 9:51 PM EDT
Moon 3:29 AM EDT (5/4) 3:36 PM EDT (5/4)
Length of Visible Light 14h 21m
Length of Day
13h 29m
Waning Crescent, 27% of the Moon is Illuminated
May 4
Waning Crescent
May 9
New
May 18
First Quarter
May 25
Full
May 31
Last Quarter

Hourly Weather History & Observations

Time (EDT) Temp. Dew Point Humidity Pressure Visibility Wind Dir Wind Speed Gust Speed Precip Events Conditions
12:15 AM 62.6 °F 60.8 °F 94% 29.88 in 10.0 mi East 4.6 mph - N/A   Overcast
12:35 AM 62.6 °F 60.8 °F 94% 29.88 in 10.0 mi East 3.5 mph - N/A   Overcast
12:55 AM 62.6 °F 60.8 °F 94% 29.88 in 10.0 mi East 3.5 mph - N/A   Overcast
1:15 AM 62.6 °F 60.8 °F 94% 29.87 in 10.0 mi East 3.5 mph - N/A Rain Light Rain
1:35 AM 60.8 °F 60.8 °F 100% 29.87 in 10.0 mi Calm Calm - N/A   Overcast
1:55 AM 60.8 °F 60.8 °F 100% 29.87 in 10.0 mi Calm Calm - N/A   Overcast
2:15 AM 62.6 °F 59.0 °F 88% 29.86 in 10.0 mi East 4.6 mph - N/A   Overcast
2:35 AM 60.8 °F 59.0 °F 94% 29.84 in 10.0 mi East 3.5 mph - N/A Rain Light Rain
2:55 AM 60.8 °F 59.0 °F 94% 29.83 in 10.0 mi East 6.9 mph - N/A   Overcast
3:15 AM 60.8 °F 59.0 °F 94% 29.83 in 10.0 mi East 3.5 mph - N/A   Overcast
3:35 AM 60.8 °F 59.0 °F 94% 29.82 in 10.0 mi East 3.5 mph - N/A   Mostly Cloudy
3:55 AM 60.8 °F 59.0 °F 94% 29.82 in 10.0 mi ENE 4.6 mph - N/A   Mostly Cloudy
4:15 AM 59.0 °F 59.0 °F 100% 29.81 in 10.0 mi ENE 3.5 mph - N/A   Scattered Clouds
4:35 AM 59.0 °F 59.0 °F 100% 29.82 in 10.0 mi Calm Calm - N/A   Mostly Cloudy
4:55 AM 59.0 °F 59.0 °F 100% 29.81 in 10.0 mi East 4.6 mph - N/A   Mostly Cloudy
5:15 AM 60.8 °F 59.0 °F 94% 29.82 in 10.0 mi Calm Calm - N/A   Overcast
5:35 AM 60.8 °F 59.0 °F 94% 29.81 in 10.0 mi East 4.6 mph - N/A   Overcast
5:55 AM 60.8 °F 59.0 °F 94% 29.81 in 10.0 mi East 4.6 mph - N/A   Overcast
6:15 AM 60.8 °F 59.0 °F 94% 29.82 in 10.0 mi East 5.8 mph - N/A   Overcast
6:35 AM 60.8 °F 60.8 °F 100% 29.82 in 10.0 mi East 5.8 mph - N/A   Overcast
6:55 AM 60.8 °F 60.8 °F 100% 29.82 in 10.0 mi East 8.1 mph - N/A   Overcast
7:15 AM 62.6 °F 60.8 °F 94% 29.83 in 10.0 mi East 8.1 mph - N/A   Overcast
7:35 AM 62.6 °F 60.8 °F 94% 29.83 in 10.0 mi East 5.8 mph - N/A   Overcast
7:55 AM 62.6 °F 60.8 °F 94% 29.83 in 10.0 mi East 6.9 mph - N/A   Overcast
8:15 AM 62.6 °F 60.8 °F 94% 29.84 in 10.0 mi East 9.2 mph - N/A   Overcast
8:35 AM 62.6 °F 60.8 °F 94% 29.84 in 10.0 mi East 6.9 mph - N/A   Overcast
8:55 AM 62.6 °F 60.8 °F 94% 29.84 in 10.0 mi East 6.9 mph - N/A   Overcast
9:15 AM 62.6 °F 60.8 °F 94% 29.83 in 7.0 mi East 8.1 mph - N/A   Overcast
9:35 AM 62.6 °F 60.8 °F 94% 29.83 in 5.0 mi East 6.9 mph - N/A   Overcast
9:55 AM 60.8 °F 60.8 °F 100% 29.83 in 5.0 mi East 5.8 mph - N/A   Overcast
10:15 AM 60.8 °F 60.8 °F 100% 29.83 in 5.0 mi East 5.8 mph - N/A Rain Rain
10:35 AM 60.8 °F 60.8 °F 100% 29.84 in 5.0 mi East 5.8 mph - N/A   Drizzle
10:55 AM 60.8 °F 60.8 °F 100% 29.84 in 2.5 mi East 4.6 mph - N/A Rain Rain
11:15 AM 59.0 °F 59.0 °F 100% 29.84 in 4.0 mi SSW 3.5 mph - N/A Rain Rain
11:35 AM 59.0 °F 59.0 °F 100% 29.84 in 5.0 mi SW 5.8 mph - N/A Rain Heavy Rain
11:55 AM 59.0 °F 59.0 °F 100% 29.85 in 2.5 mi West 10.4 mph - N/A Rain Rain
12:15 PM 53.6 °F 53.6 °F 100% 29.86 in 2.0 mi West 5.8 mph - N/A Rain Heavy Rain
12:35 PM 53.6 °F 53.6 °F 100% 29.87 in 2.5 mi WNW 10.4 mph 16.1 mph N/A Rain Rain
12:55 PM 51.8 °F 51.8 °F 100% 29.87 in 2.5 mi NW 10.4 mph - N/A   Drizzle
1:15 PM 51.8 °F 51.8 °F 100% 29.87 in 3.0 mi WNW 8.1 mph - N/A Rain Light Rain
1:35 PM 51.8 °F 51.8 °F 100% 29.86 in 2.5 mi NW 6.9 mph - N/A Rain Light Rain
1:55 PM 53.6 °F 53.6 °F 100% 29.86 in 2.5 mi NNW 8.1 mph - N/A Rain Rain
2:15 PM 53.6 °F 53.6 °F 100% 29.85 in 2.5 mi NNW 5.8 mph - N/A Rain Light Rain
2:35 PM 53.6 °F 53.6 °F 100% 29.86 in 2.5 mi WNW 4.6 mph - N/A Rain Rain
2:55 PM 53.6 °F 53.6 °F 100% 29.85 in 3.0 mi WNW 6.9 mph - N/A Rain Light Rain
3:15 PM 53.6 °F 53.6 °F 100% 29.86 in 3.0 mi WNW 9.2 mph - N/A   Overcast
3:35 PM 53.6 °F 53.6 °F 100% 29.85 in 2.0 mi WNW 5.8 mph - N/A   Drizzle
3:55 PM 51.8 °F 51.8 °F 100% 29.86 in 3.0 mi WNW 8.1 mph - N/A   Drizzle
4:15 PM 53.6 °F 51.8 °F 94% 29.86 in 2.5 mi NW 8.1 mph - N/A Rain Light Rain
4:35 PM 53.6 °F 51.8 °F 94% 29.86 in 3.0 mi WNW 9.2 mph - N/A Rain Rain
4:55 PM 53.6 °F 53.6 °F 100% 29.85 in 4.0 mi NNW 6.9 mph - N/A Rain Light Rain
5:15 PM 53.6 °F 51.8 °F 94% 29.86 in 4.0 mi WNW 6.9 mph - N/A   Overcast
5:35 PM 53.6 °F 51.8 °F 94% 29.86 in 2.5 mi WNW 9.2 mph - N/A Rain Light Rain
6:15 PM 51.8 °F 51.8 °F 100% 29.87 in 5.0 mi WNW 6.9 mph - N/A   Light Drizzle
6:35 PM 51.8 °F 51.8 °F 100% 29.86 in 3.0 mi NW 8.1 mph - N/A   Overcast
6:55 PM 51.8 °F 51.8 °F 100% 29.87 in 10.0 mi NW 9.2 mph - N/A   Overcast
7:15 PM 53.6 °F 51.8 °F 94% 29.87 in 10.0 mi NW 8.1 mph - N/A   Overcast
7:35 PM 53.6 °F 51.8 °F 94% 29.87 in 10.0 mi NNW 8.1 mph - N/A   Overcast
7:55 PM 53.6 °F 51.8 °F 94% 29.87 in 10.0 mi NNW 9.2 mph - N/A   Overcast
8:15 PM 53.6 °F 51.8 °F 94% 29.86 in 10.0 mi NW 4.6 mph - N/A   Overcast
8:35 PM 51.8 °F 51.8 °F 100% 29.87 in 10.0 mi NW 6.9 mph - N/A   Mostly Cloudy
8:55 PM 51.8 °F 51.8 °F 100% 29.87 in 10.0 mi NNW 4.6 mph - N/A   Scattered Clouds
9:15 PM 51.8 °F 51.8 °F 100% 29.88 in 10.0 mi North 3.5 mph - N/A   Mostly Cloudy
9:35 PM 51.8 °F 51.8 °F 100% 29.89 in 10.0 mi Calm Calm - N/A   Mostly Cloudy
9:55 PM 51.8 °F 51.8 °F 100% 29.89 in 10.0 mi NNW 3.5 mph - N/A   Mostly Cloudy
10:15 PM 51.8 °F 50.0 °F 94% 29.89 in 10.0 mi Calm Calm - N/A   Mostly Cloudy
10:35 PM 50.0 °F 50.0 °F 100% 29.89 in 10.0 mi Calm Calm - N/A   Scattered Clouds
10:55 PM 50.0 °F 50.0 °F 100% 29.89 in 10.0 mi Calm Calm - N/A   Clear
11:15 PM 50.0 °F 50.0 °F 100% 29.89 in 10.0 mi Calm Calm - N/A   Clear
11:35 PM 48.2 °F 48.2 °F 100% 29.89 in 10.0 mi West 3.5 mph - N/A   Clear
11:55 PM 48.2 °F 48.2 °F 100% 29.89 in 10.0 mi Calm Calm - N/A   Clear